Regional Weather Roundup
Issued by NWS Sterling, VA

Home | Current Version | Previous Version | Text Only | Print | Product List | Glossary On
Versions: 1 2 3 4 5 6 7 8 9 10 11 12 13 14 15 16 17 18 19 20 21 22 23 24 25 26 27 28
000
ASUS41 KLWX 260910
RWRLWX

REGIONAL WEATHER ROUNDUP
NATIONAL WEATHER SERVICE BALTIMORE MD/WASHINGTON DC
500 AM EDT FRI AUG 26 2016

Note: "FAIR" indicates few or no clouds below 12,000 feet
with no significant weather and/or obstructions to visibility.
 TC=TEMPERATURE CELSIUS

 * =Non NWS site. Station does not report precipitation (e.g. rain,
    snow, etc.), thunder, or fog.

DCZ001-MDZ009-015-VAZ040>042-051-053>054-261000-
WASHINGTON METRO

CITY           SKY/WX    TMP DP  RH WIND       PRES   REMARKS
WASHINGTON NAT FAIR      78  74  87 S3        30.02R
DULLES         FAIR      74  72  93 CALM      30.03R
ANDREWS AFB    MOCLDY    76  72  87 SW6       30.02R
FT BELVOIR     FAIR      73  72  94 CALM      30.02R FOG
QUANTICO       FAIR      78  73  84 CALM      30.03R
COLLEGE PARK*  FAIR      73  72  94 CALM      30.01R
LEESBURG*      FAIR      77  77 100 SW9       30.04R
MANASSAS*      FAIR      73  73 100 CALM      30.03R
GAITHERSBURG*  FAIR      73  70  88 CALM      30.07R

$$

MDZ006>007-011-014-261000-
BALTIMORE METRO

CITY           SKY/WX    TMP DP  RH WIND       PRES   REMARKS
BWI AIRPORT    MOCLDY    75  72  90 CALM      30.01R
MD SCIENCE CTR   N/A     79  72  79 MISG      30.01R
MARTIN STATE   MOCLDY    79  75  89 CALM      30.02R
ANNAPOLIS      MOCLDY    78  73  84 CALM      30.00R
FORT MEADE*    FAIR     N/A N/A N/A CALM      30.04R

$$

MDZ012-015-019>023-261000-
MARYLAND EASTERN SHORE

CITY           SKY/WX    TMP DP  RH WIND       PRES   REMARKS
OCEAN CITY     FAIR      78  71  79 SW9       30.03F
SALISBURY      FAIR      72  71  97 S5        30.03S
BAY BRIDGE AP* MOCLDY    79  73  83 SW5       30.01R
EASTON*        FAIR      78  77  95 SW5       30.05S

$$

MDZ017>025-261000-
SOUTHERN MARYLAND

CITY           SKY/WX    TMP DP  RH WIND       PRES   REMARKS
PATUXENT RIVER FAIR      76  70  82 SW6       30.01S
ST INIGOES     FAIR      77  72  84 SW6       30.02R
LEONARDTOWN*   FAIR      75  70  83 SW5       30.04S

$$

MDZ003>005-261000-
NORTH CENTRAL MARYLAND

CITY           SKY/WX    TMP DP  RH WIND       PRES   REMARKS
FREDERICK*     FAIR      73  73 100 CALM      30.05R FOG
HAGERSTOWN APT FAIR      78  71  79 CALM      30.04R

$$

MDZ501>502-261000-
WESTERN MARYLAND

CITY           SKY/WX    TMP DP  RH WIND       PRES   REMARKS
OAKLAND*       CLOUDY    70  70 100 W6        30.20R FOG
CUMBERLAND*    FAIR      81  70  69 CALM      30.10R

$$

VAZ025>031-261000-
SHENANDOAH VALLEY

CITY           SKY/WX    TMP DP  RH WIND       PRES   REMARKS
WINCHESTER*    FAIR      73  70  88 CALM      30.05R
FRONT ROYAL*   FAIR      73  72  94 S6        30.05R
LURAY*         FAIR     N/A N/A N/A CALM      30.07R
NEW MARKET*    FAIR     N/A N/A N/A CALM      30.07R
STAUNTON*      FAIR      68  67  97 SW3       30.11S
WAYNESBORO*    FAIR      73  69  88 W6        30.12S

$$

WVZ021-048>050-054>055-261000-
EASTERN WEST VIRGINIA PANHANDLE

CITY           SKY/WX    TMP DP  RH WIND       PRES   REMARKS
MARTINSBURG    MOCLDY    75  71  87 W3        30.03R
PETERSBURG*    FAIR      73  70  92 NE7       30.07S

$$

VAZ036>039-050-261000-
CENTRAL FOOTHILLS

CITY           SKY/WX    TMP DP  RH WIND       PRES   REMARKS
CHARLOTTESVILL FAIR      76  72  87 CALM      30.05S
CULPEPER*      FAIR      71  71 100 CALM      30.04R FOG
ORANGE*          N/A     73  73 100 CALM      30.05S
GORDONSVILLE*  FAIR      72  72 100 CALM      30.04R FOG
WARRENTON*     FOG       72  68  86 CALM      30.03R VSB 1/4

$$

VAZ055>057-261000-
NORTH AND CENTRAL PIEDMONT

CITY           SKY/WX    TMP DP  RH WIND       PRES   REMARKS
FREDERICKSBRG* FAIR      74  74 100 CALM      30.01S
STAFFORD*      FAIR      70  69  97 CALM      30.06S FOG

$$

NCZ024-NYZ072-PAZ021-071-VAZ022-071-261000-
OTHER REGIONAL OBSERVATIONS

CITY           SKY/WX    TMP DP  RH WIND       PRES   REMARKS
NEW YORK CITY    N/A     77  70  78 MISG        N/A
PHILADELPHIA   MOCLDY    75  70  84 SW9       30.00S
PITTSBURGH     FAIR      73  69  87 W5        30.09S
ROANOKE        FAIR      74  71  91 NW6       30.14S
RICHMOND       FAIR      73  69  87 S6        30.04S
RALEIGH        FAIR      73  70  90 SW7       30.09S

$$

ANZ530>537-261000-
MARINE OBSERVATIONS

STATION/POSITION TIME  TEMP    WIND        PRES
                       AIR SEA DIR/SP/G
                 (UTC) (F)     (DEG/KT/KT) (MB)
THOMAS PT LIGHT  0900   78 81  240/  9/ 10 1017.6R
BALT KEY BRIDGE  0848   78     210/  2/  3 1016.0R
COVE POINT       0848   79     270/ 15/ 19 1016.5F
LEWISETTA        0848   77 82  240/ 10/ 12 1016.0F
SOLOMONS ISLAND  0848   78 83  250/  2/  4   N/A
PINEY POINT      0848          240/  8/  9   N/A

$$





USA.gov is the U.S. government's official web portal to all federal, state and local government web resources and services.